Location: Laverne
(36.7100°N, 99.8930°W)
Time: 16:57:18
(UTC-06:00)

CZ-4C R/B - Pass Details

Date: 19 October 2017
Orbit: 704 x 1298 km, 63.4° (Epoch: 20 November)

Event Time Altitude Azimuth Distance (km) Brightness Sun altitude
Exits shadow 07:10:56 - 306° (NW) 3,537 4.9 -8.7°
Reaches altitude 10° 07:12:33 10° 298° (WNW) 3,129 4.6 -8.4°
Maximum altitude 07:18:06 22° 251° (WSW) 2,420 4.1 -7.3°
Drops below altitude 10° 07:23:57 10° 205° (SSW) 3,288 5.1 -6.2°
Sets 07:27:32 0° 191° (S) 4,265 5.8 -5.5°
